Location: Unspecified
(0.0000°N, 0.0000°E)
Time: 00:58:41
(UTC+00:00)

Vanguard 3 - All Passes

Search period start: 26 May 2019 00:00
Search period end: 05 June 2019 00:00
Orbit: 508 x 3263 km, 33.3° (Epoch: 25 May)

Date Brightness Start Highest point End Pass type
(mag) Time Alt. Az. Time Alt. Az. Time Alt. Az.
26 May - 00:43:54 10° NNW 00:54:41 26° NE 01:08:57 10° E visible
26 May - 02:55:01 10° NW 03:11:38 67° NE 03:31:23 10° ESE visible
26 May - 05:10:18 10° WNW 05:29:12 58° SW 05:46:40 10° SE visible
26 May - 07:33:29 10° WSW 07:47:13 23° SSW 07:58:12 10° SSE daylight
26 May - 14:35:06 10° SSW 14:38:50 20° SSE 14:41:50 10° ESE daylight
26 May - 16:47:07 10° W 16:50:24 28° NW 16:53:43 10° NNE daylight
26 May - 23:32:08 10° N 23:38:00 14° NNE 23:45:10 10° ENE visible
27 May - 01:40:50 10° NNW 01:54:39 46° NE 02:13:07 10° ESE visible
27 May - 03:53:45 10° WNW 04:11:42 81° SW 04:31:14 10° SE visible
27 May - 06:12:26 10° W 06:29:42 36° SSW 06:44:32 10° SSE daylight
27 May - 08:42:01 10° SW 08:48:46 13° SSW 08:54:31 10° S daylight
27 May - 13:22:07 10° S 13:24:17 12° SSE 13:26:10 10° SE daylight
27 May - 15:32:31 10° SW 15:37:01 84° SSE 15:40:40 10° ENE daylight
28 May - 00:27:40 10° NNW 00:38:10 29° NE 00:52:42 10° E visible
28 May - 02:38:35 10° NW 02:54:25 74° NE 03:14:34 10° ESE visible
28 May - 04:53:56 10° WNW 05:12:04 53° SW 05:29:55 10° SE visible
28 May - 07:17:38 10° WSW 07:30:54 22° SSW 07:41:55 10° SSE daylight
28 May - 14:18:17 10° SSW 14:23:19 31° SSE 14:26:56 10° E daylight
28 May - 16:31:55 10° W 16:34:45 19° NW 16:37:27 10° NNE daylight
28 May - 23:16:01 10° N 23:21:59 15° NNE 23:29:28 10° ENE visible
29 May - 01:24:32 10° NW 01:37:42 51° NE 01:56:23 10° ESE visible
29 May - 03:37:24 10° WNW 03:54:29 73° SW 04:14:19 10° SE visible
29 May - 05:56:23 10° W 06:12:57 33° SSW 06:27:55 10° SSE daylight
29 May - 08:26:05 10° SW 08:33:00 13° SSW 08:38:58 10° S daylight
29 May - 13:04:06 10° SSW 13:08:50 18° SSE 13:12:22 10° ESE daylight
29 May - 15:16:29 10° WSW 15:21:23 64° NW 15:25:03 10° NE daylight
30 May - 00:11:28 10° NNW 00:21:36 31° NE 00:36:17 10° E visible
30 May - 02:22:19 10° NW 02:37:15 82° NE 02:57:35 10° ESE visible
30 May - 04:37:47 10° WNW 04:55:02 47° SSW 05:13:03 10° SE visible
30 May - 07:01:54 10° WSW 07:14:41 20° SSW 07:25:39 10° SSE daylight
30 May - 11:49:37 10° SSW 11:53:33 13° SSE 11:56:44 10° SE daylight
30 May - 14:01:35 10° SW 14:07:45 46° SSE 14:11:47 10° ENE daylight
30 May - 16:17:00 10° WNW 16:19:02 13° NW 16:20:56 10° N daylight
30 May - 22:59:52 10° N 23:05:53 16° NE 23:13:42 10° ENE visible
31 May - 01:08:20 10° NW 01:20:46 56° NE 01:39:29 10° ESE visible
31 May - 03:21:14 10° WNW 03:37:20 66° SW 03:57:15 10° SE visible
31 May - 05:40:32 10° W 05:56:19 30° SSW 06:11:14 10° SSE daylight
31 May - 08:09:55 10° SW 08:17:18 13° SSW 08:23:41 10° SSE daylight
31 May - 10:34:03 10° S 10:37:20 11° S 10:40:11 10° SSE daylight
31 May - 12:46:40 10° SSW 12:53:20 26° SSE 12:57:47 10° E daylight
31 May - 15:00:30 10° WSW 15:05:39 44° NW 15:09:21 10° NE daylight
31 May - 23:55:20 10° NNW 00:05:01 34° NE 00:19:43 10° E visible
01 Jun - 02:06:10 10° NW 02:20:11 90° SW 02:40:27 10° SE visible
01 Jun - 04:21:50 10° W 04:38:07 42° SSW 04:56:02 10° SE visible
01 Jun - 06:46:16 10° WSW 06:58:35 19° SSW 07:09:27 10° SSE daylight
01 Jun - 09:15:25 10° SSW 09:20:01 12° S 09:24:02 10° SSE daylight
01 Jun - 11:31:22 10° SSW 11:38:05 18° SSE 11:42:54 10° ESE daylight
01 Jun - 13:44:55 10° SW 13:52:06 68° SSE 13:56:29 10° ENE daylight
01 Jun - 22:43:43 10° N 22:49:44 18° NE 22:57:48 10° ENE visible
02 Jun - 00:52:15 10° NW 01:03:53 63° NE 01:22:25 10° ESE visible
02 Jun - 03:05:14 10° WNW 03:20:20 58° SSW 03:40:02 10° SE visible
02 Jun - 05:24:53 10° WSW 05:39:49 27° SSW 05:54:30 10° SSE visible
02 Jun - 07:53:29 10° SW 08:01:39 14° S 08:08:40 10° SSE daylight
02 Jun - 10:15:10 10° SSW 10:21:51 15° S 10:27:02 10° SE daylight
02 Jun - 12:29:22 10° SW 12:37:46 36° SSE 12:42:53 10° E daylight
02 Jun - 14:44:32 10° WSW 14:49:50 33° NW 14:53:34 10° NNE daylight
02 Jun - 23:39:18 10° NNW 23:48:26 38° NE 00:03:01 10° ESE visible
03 Jun - 01:50:10 10° WNW 02:03:14 81° SW 02:23:08 10° SE visible
03 Jun - 04:06:05 10° W 04:21:23 37° SSW 04:38:56 10° SSE visible
03 Jun - 06:30:41 10° SW 06:42:35 18° SSW 06:53:21 10° SSE daylight
03 Jun - 08:57:13 10° SSW 09:04:29 14° S 09:10:28 10° SSE daylight
03 Jun - 11:13:30 10° SSW 11:22:30 25° SSE 11:28:25 10° ESE daylight
03 Jun - 13:28:14 10° SW 13:36:21 88° NW 13:41:05 10° NE daylight
03 Jun - 22:27:36 10° N 22:33:33 19° NE 22:41:49 10° E visible
04 Jun - 00:36:16 10° NW 00:47:05 70° NE 01:05:13 10° ESE visible
04 Jun - 02:49:25 10° WNW 03:03:31 51° SSW 03:22:40 10° SE visible
04 Jun - 05:09:25 10° WSW 05:23:28 25° SSW 05:37:44 10° SSE visible
04 Jun - 07:36:50 10° SSW 07:45:58 15° S 07:53:49 10° SSE daylight
04 Jun - 09:56:59 10° SSW 10:06:15 19° SSE 10:12:57 10° ESE daylight
04 Jun - 12:12:06 10° SW 12:22:04 49° SSE 12:27:46 10° ENE daylight
04 Jun - 14:28:35 10° W 14:33:57 26° NW 14:37:42 10° NNE daylight
04 Jun - 23:23:19 10° NNW 23:31:54 42° NE 23:46:11 10° ESE night (unlit)
